Regional Weather Roundup
Issued by NWS

Home | Current Version | Previous Version | Text Only | Print | Product List | Glossary Off
Versions: 1 2 3 4 5 6 7 8 9 10 11 12 13 14 15 16 17 18 19 20 21 22 23 24 25 26 27 28 29 30 31 32 33 34 35 36 37 38 39 40 41 42 43 44 45 46 47 48 49 50

000
ASUS43 KFSD 230010
RWRSD

WEATHER ROUNDUP FOR SOUTH DAKOTA
NATIONAL WEATHER SERVICE SIOUX FALLS SD
700 PM CDT TUE JUL 22 2014

NOTE: "FAIR" INDICATES FEW OR NO CLOUDS BELOW 12,000 FEET WITH NO
SIGNIFICANT WEATHER AND/OR OBSTRUCTIONS TO VISIBILITY.


SDZ001>005-009-010-012>017-230100-
NORTHWEST AND NORTH CENTRAL SOUTH DAKOTA

CITY           SKY/WX    TMP DP  RH WIND       PRES   REMARKS
BUFFALO          N/A     79  59  50 E22       30.08F
FAITH            N/A     80  59  48 SE13      30.21R
MOBRIDGE       SUNNY     83  59  44 E6        30.17R
$$

SDZ012>016-024>037-041>051-057-063-072>074-230100-
SOUTHWEST AND SOUTH CENTRAL SOUTH DAKOTA

CITY           SKY/WX    TMP DP  RH WIND       PRES   REMARKS
RAPID CTY ARPT MOSUNNY   79  63  57 S8        30.19S
PIERRE         SUNNY     85  58  39 SE13      30.15F
CUSTER         MOSUNNY   76  56  49 E16G22    30.32F
ELLSWORTH AFB  PTSUNNY   81  61  50 SE10      30.19F THUNDER
PHILIP         MOSUNNY   86  59  39 SE10      30.16S
PINE RIDGE     SUNNY     84  62  47 E14       30.19F
WINNER         FAIR      86  59  39 E9        30.18S
$$

SDZ004>011-016>023-039-040-230100-
NORTHEAST SOUTH DAKOTA

CITY           SKY/WX    TMP DP  RH WIND       PRES   REMARKS
ABERDEEN       SUNNY     79  60  52 NE8       30.19S
WATERTOWN      SUNNY     76  56  49 NE10      30.20S
SISSETON         N/A     78  59  51 N12       30.18S
$$

SDZ017-020-022-023-036>040-048>070-230100-
SOUTHEAST SOUTH DAKOTA

CITY           SKY/WX    TMP DP  RH WIND       PRES   REMARKS
SIOUX FALLS    MOSUNNY   81  60  48 N12       30.17S
HURON          SUNNY     81  58  45 NE8       30.17S
CHAMBERLAIN    SUNNY     83  57  41 NE7       30.18S
MITCHELL       SUNNY     82  61  48 MISG      30.18R
YANKTON        SUNNY     82  63  51 N8        30.16R
$$

ABBREVIATIONS USED IN REMARKS
   TC - TEMPERATURE IN CELSIUS
  WCI - WIND CHILL INDEX
   HX - HEAT INDEX
  VSB - VISIBILITY




USA.gov is the U.S. government's official web portal to all federal, state and local government web resources and services.